Simultaneous Nadir Overpasses (SNOs) Predictions

Prediction of SNOs between METOP-A and TERRA Satellite Orbit:

Table of predicted SNOs for the next 14.0 days since TLE Epoch: 8/16/2014
Index Date (METOP-A) Time (METOP-A) Lat,Lon (METOP-A) SZA (METOP-A ) Date (TERRA) Time (TERRA) Lat,Lon (TERRA) SZA (TERRA ) Distance(km) Time Diff (sec)
1 08/17/2014 01:31:14 -81.28, 23.71 109.55 08/17/2014 01:32:10 -81.28, 23.87 109.50 2.60 56
2 08/17/2014 02:21:53 81.29,-168.42 70.54 08/17/2014 02:21:36 81.29,-168.34 70.54 1.49 17
3 08/19/2014 21:05:38 -81.28, 90.12 108.62 08/19/2014 21:06:27 -81.28, 90.30 108.58 3.18 49
4 08/19/2014 21:56:17 81.29,-102.04 71.46 08/19/2014 21:55:53 81.29,-101.93 71.46 1.84 24
5 08/22/2014 16:40:02 -81.28, 156.48 107.68 08/22/2014 16:40:44 -81.28, 156.66 107.64 2.98 42
6 08/22/2014 17:30:41 81.28, -35.69 72.40 08/22/2014 17:30:10 81.28, -35.61 72.39 1.39 31
7 08/25/2014 12:14:24 -81.28,-136.80 106.66 08/25/2014 12:14:59 -81.29,-136.69 106.63 2.11 35
8 08/25/2014 13:05:03 81.29, 31.02 73.41 08/25/2014 13:04:25 81.29, 31.02 73.40 0.64 38
9 08/28/2014 07:48:48 -81.28, -70.51 105.68 08/28/2014 07:49:16 -81.28, -70.49 105.66 0.33 28




NCC Satellite Simultaneous Nadir Overpasses (SNOs) Prediction Service
